Tracking 18840 objects as of 20-November-2017
HD Live streaming from Space Station
objects crossing your sky now

OBJECT J

Track OBJECT J now!
10-day predictions


NORAD ID: 42833
Int'l Code: 2017-042J
Perigee: 592.5 km
Apogee: 612.0 km
Inclination: 97.6 °
Period: 96.6 minutes
Semi major axis: 6973 km
RCS: Unknown
Launch date: July 14, 2017
Source: (TBD)
Launch site: TYURATAM MISSILE AND SPACE COMPLEX (TTMTR)
aabbcc
Your satellite tracking list
Your tracking list is empty




NASA's NSSDC Master Catalog

Two Line Element Set (TLE):
1 42833U 17042J   17323.86427881  .00000353  00000-0  41235-4 0  9994
2 42833  97.6079 228.9557 0014018 168.3112 191.8434 14.90911906 19150
Source of the keplerian elements: AFSPC